{"data":{"norad_id":53601,"epoch":"2026-09-20T21:46:40.987776Z","epoch_age_seconds":43466,"freshness":"FRESH","line1":"1 53601U 22104P   26263.90741884  .00000086  00000+0  13363-4 0  9997","line2":"2 53601  53.1596  71.8240 0001239  86.1441 273.9704 15.35398785225305","mean_motion":15.35398785,"eccentricity":0.0001239,"inclination_deg":53.1596,"raan_deg":71.824,"arg_perigee_deg":86.1441,"mean_anomaly_deg":273.9704,"bstar":1.3363e-5,"rev_number":22530,"period_min":93.786709620198,"perigee_km":458.88903756472,"apogee_km":460.58346255608,"semimajor_km":6837.8732500604,"source":"CELESTRAK","updated_at":"2026-09-21T09:00:32.936824Z"}}